Emporia, KS

10:22 PM CST on November 22, 2017 (GMT -0600)
Emporia Municipal

Weather History for KEMP - September, 2013

Change the Weather History Date:

Sunday, September 29, 2013

  Actual Average Record
Temperature  
Mean Temperature 58 °F 63 °F  
Max Temperature 73 °F 75 °F 93 °F (2002)
Min Temperature 43 °F 51 °F 37 °F (2005)
Degree Days  
Heating Degree Days 7 4  
Month to date heating degree days 13 42  
Since 1 July heating degree days 15 43  
Cooling Degree Days 0 3  
Month to date cooling degree days 216 162  
Year to date cooling degree days 1345 1370  
Growing Degree Days 9 (Base 50)    
Moisture  
Dew Point 47 °F    
Average Humidity 69    
Maximum Humidity 100    
Minimum Humidity 38    
Precipitation  
Precipitation 0.00 in 0.10 in 0.89 in (1998)
Month to date precipitation 2.95 3.29  
Year to date precipitation 27.04 29.90  
Sea Level Pressure  
Sea Level Pressure 30.05 in    
Wind  
Wind Speed 5 mph (South)    
Max Wind Speed 10 mph    
Max Gust Speed 13 mph    
Visibility 10 miles    
Events      
T = Trace of Precipitation, MM = Missing Value Source: NWS Daily Summary

Daily Weather History Graph

Daily Weather History Graph

Search for Another Location

Airport or City:

Trip Planner

Search our weather history database for the weather conditions in past years. The results will help you decide how hot, cold, wet, or windy it might be!

Date:

Astronomy

Sep. 29, 2013 Rise Set
Actual Time 7:18 AM CDT 7:10 PM CDT
Civil Twilight 6:52 AM CDT 7:36 PM CDT
Nautical Twilight 6:21 AM CDT 8:07 PM CDT
Astronomical Twilight 5:50 AM CDT 8:38 PM CDT
Moon 2:05 AM CDT (9/29) 4:03 PM CDT (9/29)
Length of Visible Light 12h 44m
Length of Day
11h 51m
Waning Crescent, 27% of the Moon is Illuminated
Sep 29
Waning Crescent
Oct 4
New
Oct 11
First Quarter
Oct 18
Full
Oct 26
Last Quarter

Hourly Weather History & Observations

Time (CDT) Temp. Windchill Dew Point Humidity Pressure Visibility Wind Dir Wind Speed Gust Speed Precip Events Conditions
12:53 AM 52.0 °F - 46.0 °F 80% 30.11 in 9.0 mi WNW 3.5 mph - N/A   Clear
1:53 AM 51.1 °F - 46.0 °F 83% 30.11 in 10.0 mi West 4.6 mph - N/A   Clear
2:53 AM 48.9 °F - 46.0 °F 90% 30.11 in 10.0 mi WNW 3.5 mph - N/A   Clear
3:53 AM 46.9 °F - 45.0 °F 93% 30.09 in 10.0 mi WNW 4.6 mph - N/A   Clear
4:53 AM 45.0 °F 43.5 °F 44.1 °F 97% 30.09 in 10.0 mi West 3.5 mph - N/A   Clear
5:53 AM 45.0 °F 43.5 °F 44.1 °F 97% 30.10 in 10.0 mi WNW 3.5 mph - N/A   Clear
6:53 AM 45.0 °F 42.6 °F 43.0 °F 93% 30.11 in 10.0 mi NW 4.6 mph - N/A   Clear
7:53 AM 46.0 °F - 44.1 °F 93% 30.12 in 10.0 mi Calm Calm - N/A   Clear
8:53 AM 51.1 °F - 48.0 °F 89% 30.13 in 10.0 mi NW 4.6 mph - N/A   Clear
9:53 AM 57.9 °F - 51.1 °F 78% 30.12 in 10.0 mi Calm Calm - N/A   Clear
10:53 AM 64.0 °F - 50.0 °F 60% 30.12 in 10.0 mi SSE 5.8 mph - N/A   Clear
11:53 AM 66.9 °F - 46.9 °F 49% 30.10 in 10.0 mi SSE 5.8 mph - N/A   Clear
12:53 PM 69.1 °F - 46.0 °F 44% 30.07 in 10.0 mi Variable 3.5 mph - N/A   Clear
1:53 PM 71.1 °F - 46.0 °F 41% 30.04 in 10.0 mi SE 6.9 mph - N/A   Clear
2:53 PM 72.0 °F - 46.0 °F 40% 30.01 in 10.0 mi SE 6.9 mph - N/A   Clear
3:53 PM 73.0 °F - 48.0 °F 41% 29.99 in 10.0 mi South 6.9 mph - N/A   Clear
4:53 PM 73.0 °F - 46.9 °F 39% 29.97 in 10.0 mi SE 6.9 mph - N/A   Clear
5:53 PM 72.0 °F - 46.9 °F 41% 29.96 in 10.0 mi SSE 8.1 mph - N/A   Clear
6:53 PM 66.0 °F - 48.9 °F 54% 29.96 in 10.0 mi SSE 5.8 mph - N/A   Clear
7:53 PM 59.0 °F - 50.0 °F 72% 29.96 in 10.0 mi South 5.8 mph - N/A   Clear
8:53 PM 57.9 °F - 50.0 °F 75% 29.97 in 10.0 mi SSE 5.8 mph - N/A   Clear
9:53 PM 57.9 °F - 50.0 °F 75% 29.96 in 10.0 mi SSE 8.1 mph - N/A   Clear
10:53 PM 54.0 °F - 48.0 °F 80% 29.97 in 10.0 mi South 6.9 mph - N/A   Clear
11:53 PM 54.0 °F - 48.0 °F 80% 29.95 in 10.0 mi SSE 9.2 mph - N/A   Clear